Location: Radomski Observatory
(40.2854°N, 79.5145°W)
Time: 00:34:38
(UTC-04:00)

Cosmos 1072 Rocket - Visible Passes

Search period start: 27 May 2016 00:00
Search period end: 06 June 2016 00:00
Orbit: 948 x 1009 km, 82.9° (Epoch: 25 May)

Date Brightness Start Highest point End Pass type
(mag) Time Alt. Az. Time Alt. Az. Time Alt. Az.
27 May 5.9 22:13:00 10° NNW 22:18:37 35° W 22:24:16 10° SSW visible
28 May 6.8 22:40:24 10° NW 22:44:38 19° W 22:48:53 10° SW visible
29 May 4.8 21:19:55 10° N 21:26:12 73° W 21:32:31 10° S visible
30 May 5.9 21:46:38 10° NNW 21:52:24 39° W 21:58:14 10° SSW visible
31 May 6.8 22:13:52 10° NW 22:18:27 21° W 22:23:03 10° SW visible
01 Jun 7.4 22:43:03 10° WNW 22:44:19 11° WNW 22:45:34 10° W visible
02 Jun 5.8 21:20:15 10° NNW 21:26:11 44° W 21:32:09 10° SSW visible
03 Jun 6.8 21:47:23 10° NW 21:52:15 24° W 21:57:09 10° SW visible
04 Jun 7.3 22:15:47 10° WNW 22:18:08 12° WNW 22:20:30 10° W visible
